Time,TemperatureF,DewpointF,PressureIn,WindDirection,WindDirectionDegrees,WindSpeedMPH,WindSpeedGustMPH,Humidity,HourlyPrecipIn,Conditions,Clouds,dailyrainin,SoftwareType,DateUTC
2013-04-17 09:10:00,59.8,32.1,30.25,NW,305,2.0,3.0,35,0.00,,,0.00,Wunderground v.1.15,2013-04-17 16:10:00,
2013-04-17 09:12:00,59.7,30.5,30.25,NNW,339,2.0,3.0,33,0.00,,,0.00,Wunderground v.1.15,2013-04-17 16:12:00,
2013-04-17 09:14:00,59.8,31.3,30.25,NW,309,2.0,3.0,34,0.00,,,0.00,Wunderground v.1.15,2013-04-17 16:14:00,
2013-04-17 09:18:00,59.8,29.9,30.25,NW,307,2.0,3.0,32,0.00,,,0.00,Wunderground v.1.15,2013-04-17 16:18:00,
2013-04-17 09:24:00,60.3,30.3,30.25,NNE,17,2.0,2.0,32,0.00,,,0.00,Wunderground v.1.15,2013-04-17 16:24:00,
2013-04-17 09:30:00,60.8,30.7,30.25,North,355,1.0,2.0,32,0.00,,,0.00,Wunderground v.1.15,2013-04-17 16:30:00,
2013-04-17 09:34:00,61.0,30.1,30.25,North,355,1.0,2.0,31,0.00,,,0.00,Wunderground v.1.15,2013-04-17 16:34:00,
2013-04-17 09:40:00,61.1,29.4,30.26,NNE,20,2.0,5.0,30,0.00,,,0.00,Wunderground v.1.15,2013-04-17 16:40:00,
2013-04-17 09:46:00,60.6,29.0,30.26,NW,321,3.0,7.0,30,0.00,,,0.00,Wunderground v.1.15,2013-04-17 16:46:00,
2013-04-17 09:52:00,60.9,28.4,30.26,ENE,69,3.0,6.0,29,0.00,,,0.00,Wunderground v.1.15,2013-04-17 16:52:00,
2013-04-17 09:58:00,61.2,32.6,30.25,NE,53,1.0,6.0,34,0.00,,,0.00,Wunderground v.1.15,2013-04-17 16:58:00,
2013-04-17 10:04:00,61.7,29.9,30.25,NNW,341,1.0,3.0,30,0.00,,,0.00,Wunderground v.1.15,2013-04-17 17:04:00,
2013-04-17 10:10:00,62.2,31.2,30.25,NW,307,2.0,2.0,31,0.00,,,0.00,Wunderground v.1.15,2013-04-17 17:10:00,
2013-04-17 10:16:00,62.4,29.7,30.25,North,5,2.0,2.0,29,0.00,,,0.00,Wunderground v.1.15,2013-04-17 17:16:00,
2013-04-17 10:22:00,62.3,29.6,30.25,North,355,2.0,3.0,29,0.00,,,0.00,Wunderground v.1.15,2013-04-17 17:22:00,
2013-04-17 10:28:00,62.5,29.8,30.26,WNW,302,2.0,3.0,29,0.00,,,0.00,Wunderground v.1.15,2013-04-17 17:28:00,
2013-04-17 10:34:00,62.8,30.0,30.26,ENE,66,2.0,4.0,29,0.00,,,0.00,Wunderground v.1.15,2013-04-17 17:34:00,
2013-04-17 10:40:00,62.1,26.8,30.26,NW,304,3.0,6.0,26,0.00,,,0.00,Wunderground v.1.15,2013-04-17 17:40:00,
2013-04-17 10:46:00,61.8,30.0,30.26,NNE,18,3.0,6.0,30,0.00,,,0.00,Wunderground v.1.15,2013-04-17 17:46:00,
2013-04-17 10:52:00,61.8,27.4,30.25,NW,324,2.0,2.0,27,0.00,,,0.00,Wunderground v.1.15,2013-04-17 17:52:00,
2013-04-17 10:58:00,62.4,31.3,30.26,NW,309,2.0,2.0,31,0.00,,,0.00,Wunderground v.1.15,2013-04-17 17:58:00,
2013-04-17 11:04:00,63.3,30.5,30.25,NNW,335,1.0,3.0,29,0.00,,,0.00,Wunderground v.1.15,2013-04-17 18:04:00,
2013-04-17 11:10:00,63.8,30.9,30.25,ENE,67,2.0,2.0,29,0.00,,,0.00,Wunderground v.1.15,2013-04-17 18:10:00,
2013-04-17 11:16:00,63.7,29.1,30.25,WNW,292,3.0,3.0,27,0.00,,,0.00,Wunderground v.1.15,2013-04-17 18:16:00,
2013-04-17 11:22:00,64.0,29.3,30.25,WNW,303,3.0,3.0,27,0.00,,,0.00,Wunderground v.1.15,2013-04-17 18:22:00,
2013-04-17 11:28:00,63.8,30.0,30.25,ENE,78,3.0,7.0,28,0.00,,,0.00,Wunderground v.1.15,2013-04-17 18:28:00,
2013-04-17 11:34:00,63.9,29.2,30.25,ENE,69,2.0,3.0,27,0.00,,,0.00,Wunderground v.1.15,2013-04-17 18:34:00,
2013-04-17 11:40:00,64.1,30.3,30.25,SW,221,2.0,2.0,28,0.00,,,0.00,Wunderground v.1.15,2013-04-17 18:40:00,
2013-04-17 11:46:00,64.5,28.8,30.25,NNW,348,2.0,2.0,26,0.00,,,0.00,Wunderground v.1.15,2013-04-17 18:46:00,
2013-04-17 11:52:00,64.9,31.0,30.25,NW,310,2.0,2.0,28,0.00,,,0.00,Wunderground v.1.15,2013-04-17 18:52:00,
2013-04-17 11:58:00,65.0,29.2,30.25,West,278,2.0,4.0,26,0.00,,,0.00,Wunderground v.1.15,2013-04-17 18:58:00,
2013-04-17 12:06:00,64.7,29.0,30.25,NW,311,2.0,4.0,26,0.00,,,0.00,Wunderground v.1.15,2013-04-17 19:06:00,
2013-04-17 12:12:00,64.3,29.6,30.24,NW,311,2.0,5.0,27,0.00,,,0.00,Wunderground v.1.15,2013-04-17 19:12:00,
2013-04-17 12:18:00,64.4,29.7,30.25,NNE,22,2.0,7.0,27,0.00,,,0.00,Wunderground v.1.15,2013-04-17 19:18:00,
2013-04-17 12:23:00,64.5,29.7,30.24,SW,224,2.0,2.0,27,0.00,,,0.00,Wunderground v.1.15,2013-04-17 19:23:00,
2013-04-17 12:29:00,64.5,28.8,30.24,NW,307,2.0,3.0,26,0.00,,,0.00,Wunderground v.1.15,2013-04-17 19:29:00,
2013-04-17 12:36:00,64.3,29.6,30.24,NNE,26,3.0,5.0,27,0.00,,,0.00,Wunderground v.1.15,2013-04-17 19:36:00,
2013-04-17 12:42:00,64.5,29.7,30.24,ENE,64,2.0,4.0,27,0.00,,,0.00,Wunderground v.1.15,2013-04-17 19:42:00,
2013-04-17 12:47:00,64.9,29.2,30.23,NNE,20,2.0,4.0,26,0.00,,,0.00,Wunderground v.1.15,2013-04-17 19:47:00,
2013-04-17 12:54:00,65.1,29.3,30.24,ENE,65,3.0,5.0,26,0.00,,,0.00,Wunderground v.1.15,2013-04-17 19:54:00,
2013-04-17 12:59:00,65.3,29.5,30.23,NW,313,2.0,2.0,26,0.00,,,0.00,Wunderground v.1.15,2013-04-17 19:59:00,
2013-04-17 13:06:00,65.5,28.7,30.23,NW,318,2.0,5.0,25,0.00,,,0.00,Wunderground v.1.15,2013-04-17 20:06:00,
2013-04-17 13:11:00,65.6,29.8,30.23,NE,34,3.0,3.0,26,0.00,,,0.00,Wunderground v.1.15,2013-04-17 20:11:00,
2013-04-17 13:18:00,65.9,30.0,30.23,NNW,333,2.0,4.0,26,0.00,,,0.00,Wunderground v.1.15,2013-04-17 20:18:00,
2013-04-17 13:24:00,66.2,29.3,30.22,WSW,238,2.0,3.0,25,0.00,,,0.00,Wunderground v.1.15,2013-04-17 20:24:00,
2013-04-17 13:29:00,66.4,27.4,30.22,North,350,1.0,3.0,23,0.00,,,0.00,Wunderground v.1.15,2013-04-17 20:29:00,
2013-04-17 13:36:00,66.8,28.8,30.22,NNW,328,2.0,3.0,24,0.00,,,0.00,Wunderground v.1.15,2013-04-17 20:36:00,
2013-04-17 13:41:00,66.7,26.6,30.22,North,350,2.0,3.0,22,0.00,,,0.00,Wunderground v.1.15,2013-04-17 20:41:00,
2013-04-17 13:47:00,66.9,25.7,30.22,NW,325,2.0,5.0,21,0.00,,,0.00,Wunderground v.1.15,2013-04-17 20:47:00,
2013-04-17 13:53:00,66.9,26.8,30.22,ENE,58,2.0,3.0,22,0.00,,,0.00,Wunderground v.1.15,2013-04-17 20:53:00,
2013-04-17 13:59:00,67.0,26.9,30.22,NNW,336,2.0,2.0,22,0.00,,,0.00,Wunderground v.1.15,2013-04-17 20:59:00,
2013-04-17 14:06:00,67.2,27.0,30.22,NNW,327,1.0,5.0,22,0.00,,,0.00,Wunderground v.1.15,2013-04-17 21:06:00,
2013-04-17 14:12:00,67.5,27.3,30.22,WNW,294,3.0,5.0,22,0.00,,,0.00,Wunderground v.1.15,2013-04-17 21:12:00,
2013-04-17 14:17:00,67.6,30.5,30.21,NW,318,3.0,5.0,25,0.00,,,0.00,Wunderground v.1.15,2013-04-17 21:17:00,
2013-04-17 14:24:00,68.0,28.8,30.21,NE,54,2.0,4.0,23,0.00,,,0.00,Wunderground v.1.15,2013-04-17 21:24:00,
2013-04-17 14:30:00,68.4,26.9,30.20,NNE,15,2.0,2.0,21,0.00,,,0.00,Wunderground v.1.15,2013-04-17 21:30:00,
2013-04-17 14:36:00,68.5,28.1,30.20,WNW,294,3.0,4.0,22,0.00,,,0.00,Wunderground v.1.15,2013-04-17 21:36:00,
2013-04-17 14:41:00,69.0,30.7,30.20,WNW,286,2.0,2.0,24,0.00,,,0.00,Wunderground v.1.15,2013-04-17 21:41:00,
2013-04-17 14:48:00,68.7,28.3,30.20,NW,308,2.0,5.0,22,0.00,,,0.00,Wunderground v.1.15,2013-04-17 21:48:00,
2013-04-17 14:53:00,68.7,29.4,30.20,ENE,58,3.0,4.0,23,0.00,,,0.00,Wunderground v.1.15,2013-04-17 21:53:00,
2013-04-17 15:00:00,68.8,28.4,30.20,North,9,2.0,2.0,22,0.00,,,0.00,Wunderground v.1.15,2013-04-17 22:00:00,
2013-04-17 15:06:00,69.5,29.0,30.19,NNE,14,2.0,2.0,22,0.00,,,0.00,Wunderground v.1.15,2013-04-17 22:06:00,
2013-04-17 15:11:00,69.2,27.6,30.19,North,5,2.0,5.0,21,0.00,,,0.00,Wunderground v.1.15,2013-04-17 22:11:00,
2013-04-17 15:17:00,69.2,27.6,30.19,ENE,60,3.0,5.0,21,0.00,,,0.00,Wunderground v.1.15,2013-04-17 22:17:00,
2013-04-17 15:23:00,69.2,27.6,30.19,NNW,335,3.0,4.0,21,0.00,,,0.00,Wunderground v.1.15,2013-04-17 22:23:00,
2013-04-17 15:29:00,69.5,29.0,30.18,NNW,344,2.0,2.0,22,0.00,,,0.00,Wunderground v.1.15,2013-04-17 22:29:00,
2013-04-17 15:36:00,69.3,28.8,30.18,NW,313,2.0,4.0,22,0.00,,,0.00,Wunderground v.1.15,2013-04-17 22:36:00,
2013-04-17 15:41:00,69.4,28.9,30.18,NNE,15,2.0,2.0,22,0.00,,,0.00,Wunderground v.1.15,2013-04-17 22:41:00,
2013-04-17 15:47:00,69.9,28.2,30.18,NW,322,1.0,3.0,21,0.00,,,0.00,Wunderground v.1.15,2013-04-17 22:47:00,
2013-04-17 15:53:00,69.8,26.9,30.18,NW,317,3.0,5.0,20,0.00,,,0.00,Wunderground v.1.15,2013-04-17 22:53:00,
2013-04-17 15:59:00,69.6,31.2,30.18,WNW,294,2.0,2.0,24,0.00,,,0.00,Wunderground v.1.15,2013-04-17 22:59:00,
2013-04-17 16:06:00,69.8,26.9,30.17,North,5,1.0,4.0,20,0.00,,,0.00,Wunderground v.1.15,2013-04-17 23:06:00,
2013-04-17 16:11:00,69.7,28.0,30.17,NW,314,2.0,10.0,21,0.00,,,0.00,Wunderground v.1.15,2013-04-17 23:11:00,
2013-04-17 16:17:00,69.3,27.7,30.17,NNE,30,3.0,10.0,21,0.00,,,0.00,Wunderground v.1.15,2013-04-17 23:17:00,
2013-04-17 16:23:00,69.4,30.0,30.17,NW,321,2.0,3.0,23,0.00,,,0.00,Wunderground v.1.15,2013-04-17 23:23:00,
2013-04-17 16:29:00,69.9,27.0,30.17,NNE,27,1.0,2.0,20,0.00,,,0.00,Wunderground v.1.15,2013-04-17 23:29:00,
2013-04-17 16:36:00,69.8,28.1,30.17,NNW,329,1.0,2.0,21,0.00,,,0.00,Wunderground v.1.15,2013-04-17 23:36:00,
2013-04-17 16:43:00,69.9,28.2,30.17,North,355,1.0,3.0,21,0.00,,,0.00,Wunderground v.1.15,2013-04-17 23:43:00,
2013-04-17 16:49:00,69.9,28.2,30.17,North,355,2.0,7.0,21,0.00,,,0.00,Wunderground v.1.15,2013-04-17 23:49:00,
2013-04-17 16:56:00,70.1,27.1,30.16,NW,309,2.0,7.0,20,0.00,,,0.00,Wunderground v.1.15,2013-04-17 23:56:00,
2013-04-17 17:01:00,70.3,28.5,30.16,WSW,240,1.0,1.0,21,0.00,,,0.00,Wunderground v.1.15,2013-04-18 00:01:00,
2013-04-17 17:07:00,70.6,26.3,30.16,NNE,28,2.0,4.0,19,0.00,,,0.00,Wunderground v.1.15,2013-04-18 00:07:00,
2013-04-17 17:13:00,70.7,26.4,30.16,West,279,2.0,2.0,19,0.00,,,0.00,Wunderground v.1.15,2013-04-18 00:13:00,
2013-04-17 17:19:00,71.1,25.4,30.16,NW,314,1.0,1.0,18,0.00,,,0.00,Wunderground v.1.15,2013-04-18 00:19:00,
2013-04-17 17:25:00,71.1,28.0,30.16,NW,325,1.0,3.0,20,0.00,,,0.00,Wunderground v.1.15,2013-04-18 00:25:00,
2013-04-17 17:31:00,71.1,26.7,30.16,NW,304,1.0,2.0,19,0.00,,,0.00,Wunderground v.1.15,2013-04-18 00:31:00,
2013-04-17 17:37:00,70.8,26.5,30.16,WSW,244,2.0,3.0,19,0.00,,,0.00,Wunderground v.1.15,2013-04-18 00:37:00,
2013-04-17 17:43:00,70.9,26.5,30.16,NW,319,1.0,6.0,19,0.00,,,0.00,Wunderground v.1.15,2013-04-18 00:43:00,
2013-04-17 17:49:00,70.7,25.1,30.16,NNW,348,2.0,2.0,18,0.00,,,0.00,Wunderground v.1.15,2013-04-18 00:49:00,
2013-04-17 17:56:00,70.4,24.8,30.16,North,355,1.0,3.0,18,0.00,,,0.00,Wunderground v.1.15,2013-04-18 00:56:00,
2013-04-17 18:01:00,69.9,25.7,30.16,NNW,328,1.0,1.0,19,0.00,,,0.00,Wunderground v.1.15,2013-04-18 01:01:00,
2013-04-17 18:07:00,69.6,25.5,30.16,NW,319,1.0,1.0,19,0.00,,,0.00,Wunderground v.1.15,2013-04-18 01:07:00,
2013-04-17 18:13:00,69.3,25.2,30.16,NW,321,1.0,2.0,19,0.00,,,0.00,Wunderground v.1.15,2013-04-18 01:13:00,
2013-04-17 18:19:00,69.0,25.0,30.16,NNW,330,1.0,1.0,19,0.00,,,0.00,Wunderground v.1.15,2013-04-18 01:19:00,
2013-04-17 18:26:00,68.8,24.8,30.16,NW,315,2.0,3.0,19,0.00,,,0.00,Wunderground v.1.15,2013-04-18 01:26:00,
2013-04-17 18:31:00,68.6,25.9,30.16,NNW,329,1.0,1.0,20,0.00,,,0.00,Wunderground v.1.15,2013-04-18 01:31:00,
2013-04-17 18:37:00,68.4,25.7,30.16,NNW,329,0.0,1.0,20,0.00,,,0.00,Wunderground v.1.15,2013-04-18 01:37:00,
2013-04-17 18:43:00,68.2,26.7,30.16,NE,53,0.0,1.0,21,0.00,,,0.00,Wunderground v.1.15,2013-04-18 01:43:00,
2013-04-17 18:49:00,68.0,26.6,30.16,NW,311,1.0,1.0,21,0.00,,,0.00,Wunderground v.1.15,2013-04-18 01:49:00,
2013-04-17 18:55:00,67.8,26.4,30.16,NW,311,0.0,1.0,21,0.00,,,0.00,Wunderground v.1.15,2013-04-18 01:55:00,
2013-04-17 19:01:00,67.6,26.2,30.16,NNW,331,0.0,0.0,21,0.00,,,0.00,Wunderground v.1.15,2013-04-18 02:01:00,
2013-04-17 19:07:00,67.4,24.9,30.16,NNW,331,0.0,1.0,20,0.00,,,0.00,Wunderground v.1.15,2013-04-18 02:07:00,
2013-04-17 19:13:00,67.1,25.8,30.16,NNW,331,0.0,1.0,21,0.00,,,0.00,Wunderground v.1.15,2013-04-18 02:13:00,
2013-04-17 19:19:00,66.9,26.8,30.16,NNW,331,0.0,0.0,22,0.00,,,0.00,Wunderground v.1.15,2013-04-18 02:19:00,
2013-04-17 19:25:00,66.5,26.4,30.16,NNW,331,0.0,0.0,22,0.00,,,0.00,Wunderground v.1.15,2013-04-18 02:25:00,
2013-04-17 19:31:00,65.9,30.0,30.16,NNW,331,0.0,0.0,26,0.00,,,0.00,Wunderground v.1.15,2013-04-18 02:31:00,
2013-04-17 19:37:00,65.1,28.4,30.16,NNW,331,0.0,0.0,25,0.00,,,0.00,Wunderground v.1.15,2013-04-18 02:37:00,
2013-04-17 19:43:00,64.2,29.5,30.16,NNW,331,0.0,0.0,27,0.00,,,0.00,Wunderground v.1.15,2013-04-18 02:43:00,
2013-04-17 19:49:00,63.5,29.8,30.16,NNW,331,0.0,0.0,28,0.00,,,0.00,Wunderground v.1.15,2013-04-18 02:49:00,
2013-04-17 19:56:00,62.5,28.0,30.16,NNW,331,0.0,0.0,27,0.00,,,0.00,Wunderground v.1.15,2013-04-18 02:56:00,
2013-04-17 20:01:00,61.8,30.0,30.16,NNW,331,0.0,0.0,30,0.00,,,0.00,Wunderground v.1.15,2013-04-18 03:01:00,
2013-04-17 20:07:00,61.1,26.8,30.17,NNW,331,0.0,0.0,27,0.00,,,0.00,Wunderground v.1.15,2013-04-18 03:07:00,
2013-04-17 20:13:00,60.8,27.5,30.17,NNW,331,0.0,0.0,28,0.00,,,0.00,Wunderground v.1.15,2013-04-18 03:13:00,
2013-04-17 20:19:00,60.4,28.0,30.17,NNW,331,0.0,0.0,29,0.00,,,0.00,Wunderground v.1.15,2013-04-18 03:19:00,
2013-04-17 20:25:00,60.1,27.7,30.17,NNW,331,0.0,0.0,29,0.00,,,0.00,Wunderground v.1.15,2013-04-18 03:25:00,
2013-04-17 20:31:00,59.6,28.1,30.17,NNW,331,0.0,0.0,30,0.00,,,0.00,Wunderground v.1.15,2013-04-18 03:31:00,
2013-04-17 20:37:00,59.0,30.6,30.18,NNW,331,0.0,0.0,34,0.00,,,0.00,Wunderground v.1.15,2013-04-18 03:37:00,
2013-04-17 20:43:00,58.7,31.8,30.18,NNW,331,0.0,0.0,36,0.00,,,0.00,Wunderground v.1.15,2013-04-18 03:43:00,
2013-04-17 20:49:00,57.9,31.1,30.18,NNW,331,0.0,0.0,36,0.00,,,0.00,Wunderground v.1.15,2013-04-18 03:49:00,
2013-04-17 20:55:00,57.1,32.4,30.19,NNW,331,0.0,0.0,39,0.00,,,0.00,Wunderground v.1.15,2013-04-18 03:55:00,
2013-04-17 21:03:00,56.1,32.1,30.19,NNW,331,0.0,0.0,40,0.00,,,0.00,Wunderground v.1.15,2013-04-18 04:03:00,
2013-04-17 21:05:00,55.9,31.3,30.19,NNW,331,0.0,0.0,39,0.00,,,0.00,Wunderground v.1.15,2013-04-18 04:05:00,
2013-04-17 21:07:00,55.6,32.2,30.19,NNW,331,0.0,0.0,41,0.00,,,0.00,Wunderground v.1.15,2013-04-18 04:07:00,
2013-04-17 21:09:00,55.3,32.0,30.19,NNW,331,0.0,0.0,41,0.00,,,0.00,Wunderground v.1.15,2013-04-18 04:09:00,
2013-04-17 21:15:00,54.7,30.8,30.19,NNW,331,0.0,0.0,40,0.00,,,0.00,Wunderground v.1.15,2013-04-18 04:15:00,
2013-04-17 21:21:00,54.2,31.6,30.19,NNW,331,0.0,0.0,42,0.00,,,0.00,Wunderground v.1.15,2013-04-18 04:21:00,
2013-04-17 21:27:00,53.7,32.3,30.20,NNW,331,0.0,0.0,44,0.00,,,0.00,Wunderground v.1.15,2013-04-18 04:27:00,
2013-04-17 21:33:00,53.2,30.7,30.20,NNW,331,0.0,0.0,42,0.00,,,0.00,Wunderground v.1.15,2013-04-18 04:33:00,
2013-04-17 21:39:00,52.9,30.4,30.20,NNW,331,0.0,0.0,42,0.00,,,0.00,Wunderground v.1.15,2013-04-18 04:39:00,
2013-04-17 21:45:00,52.7,30.8,30.20,NNW,331,0.0,0.0,43,0.00,,,0.00,Wunderground v.1.15,2013-04-18 04:45:00,
2013-04-17 21:51:00,52.5,31.2,30.20,NNW,331,0.0,0.0,44,0.00,,,0.00,Wunderground v.1.15,2013-04-18 04:51:00,
2013-04-17 21:57:00,52.4,28.8,30.21,NNW,331,0.0,0.0,40,0.00,,,0.00,Wunderground v.1.15,2013-04-18 04:57:00,
2013-04-17 22:03:00,52.9,28.0,30.21,NNW,331,0.0,0.0,38,0.00,,,0.00,Wunderground v.1.15,2013-04-18 05:03:00,
2013-04-17 22:09:00,53.7,28.0,30.21,NNW,331,0.0,0.0,37,0.00,,,0.00,Wunderground v.1.15,2013-04-18 05:09:00,
2013-04-17 22:15:00,54.4,28.6,30.21,NNW,331,0.0,0.0,37,0.00,,,0.00,Wunderground v.1.15,2013-04-18 05:15:00,
2013-04-17 22:21:00,54.7,28.9,30.21,NNW,331,0.0,0.0,37,0.00,,,0.00,Wunderground v.1.15,2013-04-18 05:21:00,
2013-04-17 22:27:00,54.7,28.2,30.21,NNW,331,0.0,1.0,36,0.00,,,0.00,Wunderground v.1.15,2013-04-18 05:27:00,
2013-04-17 22:33:00,54.6,29.5,30.21,NNW,331,0.0,0.0,38,0.00,,,0.00,Wunderground v.1.15,2013-04-18 05:33:00,
2013-04-17 22:39:00,54.3,29.2,30.21,NNW,331,0.0,0.0,38,0.00,,,0.00,Wunderground v.1.15,2013-04-18 05:39:00,
2013-04-17 22:45:00,54.1,28.4,30.20,NNW,331,0.0,1.0,37,0.00,,,0.00,Wunderground v.1.15,2013-04-18 05:45:00,
2013-04-17 22:51:00,54.3,27.9,30.20,NNW,345,0.0,1.0,36,0.00,,,0.00,Wunderground v.1.15,2013-04-18 05:51:00,
2013-04-17 22:57:00,54.7,28.2,30.20,NW,321,1.0,1.0,36,0.00,,,0.00,Wunderground v.1.15,2013-04-18 05:57:00,
2013-04-17 23:03:00,54.8,28.3,30.20,NW,319,1.0,1.0,36,0.00,,,0.00,Wunderground v.1.15,2013-04-18 06:03:00,
2013-04-17 23:09:00,54.7,28.9,30.20,NW,319,0.0,0.0,37,0.00,,,0.00,Wunderground v.1.15,2013-04-18 06:09:00,
2013-04-17 23:15:00,54.5,28.7,30.20,NW,319,0.0,0.0,37,0.00,,,0.00,Wunderground v.1.15,2013-04-18 06:15:00,
2013-04-17 23:21:00,54.1,29.0,30.20,NW,319,0.0,0.0,38,0.00,,,0.00,Wunderground v.1.15,2013-04-18 06:21:00,
2013-04-17 23:27:00,53.7,29.9,30.20,NW,319,0.0,0.0,40,0.00,,,0.00,Wunderground v.1.15,2013-04-18 06:27:00,
2013-04-17 23:33:00,53.2,30.1,30.20,NW,319,0.0,0.0,41,0.00,,,0.00,Wunderground v.1.15,2013-04-18 06:33:00,
2013-04-17 23:39:00,52.8,30.9,30.20,NW,319,0.0,0.0,43,0.00,,,0.00,Wunderground v.1.15,2013-04-18 06:39:00,
2013-04-17 23:45:00,52.3,31.0,30.21,NW,319,0.0,0.0,44,0.00,,,0.00,Wunderground v.1.15,2013-04-18 06:45:00,
2013-04-17 23:51:00,52.0,30.7,30.20,NW,319,0.0,0.0,44,0.00,,,0.00,Wunderground v.1.15,2013-04-18 06:51:00,
2013-04-17 23:57:00,52.0,31.8,30.20,NW,319,0.0,0.0,46,0.00,,,0.00,Wunderground v.1.15,2013-04-18 06:57:00,